owner,sensor,date,latitude,longitude,vertical_datum,sea_water_practical_salinity,qcFlag 
SCCF RECON,ioos:station:SCCF:53:1,2010-11-01T00:00:00Z,26.6493,-81.8810,2.02,13.97,1111122 
SCCF RECON,ioos:station:SCCF:53:1,2010-11-01T01:00:00Z,26.6493,-81.8810,2.075,13.96,1111122 
SCCF RECON,ioos:station:SCCF:53:1,2010-11-01T02:00:00Z,26.6493,-81.8810,2.13,14.09,1111122 
SCCF RECON,ioos:station:SCCF:53:1,2010-11-01T03:00:00Z,26.6493,-81.8810,2.19,13.74,1111122 
SCCF RECON,ioos:station:SCCF:53:1,2010-11-01T04:00:00Z,26.6493,-81.8810,2.23,13.86,1111122 
SCCF RECON,ioos:station:SCCF:53:1,2010-11-01T05:00:00Z,26.6493,-81.8810,2.25,14.02,1111122 
SCCF RECON,ioos:station:SCCF:53:1,2010-11-01T06:00:00Z,26.6493,-81.8810,2.22,14.11,1111122 
SCCF RECON,ioos:station:SCCF:53:1,2010-11-01T07:00:00Z,26.6493,-81.8810,2.17,13.88,1111122 
SCCF RECON,ioos:station:SCCF:53:1,2010-11-01T08:00:00Z,26.6493,-81.8810,2.12,13.75,1111122 
SCCF RECON,ioos:station:SCCF:53:1,2010-11-01T09:00:00Z,26.6493,-81.8810,2.08,13.95,1111122 
SCCF RECON,ioos:station:SCCF:53:1,2010-11-01T10:00:00Z,26.6493,-81.8810,2.05,14.08,1111122 
SCCF RECON,ioos:station:SCCF:53:1,2010-11-01T11:00:00Z,26.6493,-81.8810,2.05,14.06,1111122 
SCCF RECON,ioos:station:SCCF:53:1,2010-11-01T12:00:00Z,26.6493,-81.8810,2.09,14.23,1111122 
SCCF RECON,ioos:station:SCCF:53:1,2010-11-01T13:00:00Z,26.6493,-81.8810,2.146,14.34,1111122 
SCCF RECON,ioos:station:SCCF:53:1,2010-11-01T14:00:00Z,26.6493,-81.8810,2.196,14.12,1111122 
SCCF RECON,ioos:station:SCCF:53:1,2010-11-01T15:00:00Z,26.6493,-81.8810,2.247,14.05,1111122 
SCCF RECON,ioos:station:SCCF:53:1,2010-11-01T16:00:00Z,26.6493,-81.8810,2.28,14.3,1111122 
SCCF RECON,ioos:station:SCCF:53:1,2010-11-01T17:00:00Z,26.6493,-81.8810,2.27,14.3,1111122 
SCCF RECON,ioos:station:SCCF:53:1,2010-11-01T18:00:00Z,26.6493,-81.8810,2.211,14.15,1111122 
SCCF RECON,ioos:station:SCCF:53:1,2010-11-01T19:00:00Z,26.6493,-81.8810,2.152,13.45,1111122 
SCCF RECON,ioos:station:SCCF:53:1,2010-11-01T20:00:00Z,26.6493,-81.8810,2.102,13.9,1111122 
SCCF RECON,ioos:station:SCCF:53:1,2010-11-01T21:00:00Z,26.6493,-81.8810,2.05,14.13,1111122 
SCCF RECON,ioos:station:SCCF:53:1,2010-11-01T22:00:00Z,26.6493,-81.8810,2.01,13.93,1111122 
SCCF RECON,ioos:station:SCCF:53:1,2010-11-01T23:00:00Z,26.6493,-81.8810,2.0,13.72,1111122 
SCCF RECON,ioos:station:SCCF:53:1,2010-11-02T00:00:00Z,26.6493,-81.8810,2.018,14.34,1111122 
SCCF RECON,ioos:station:SCCF:53:1,2010-11-02T01:00:00Z,26.6493,-81.8810,2.07,14.66,1111122 
SCCF RECON,ioos:station:SCCF:53:1,2010-11-02T02:00:00Z,26.6493,-81.8810,2.129,14.7,1111122 
SCCF RECON,ioos:station:SCCF:53:1,2010-11-02T03:00:00Z,26.6493,-81.8810,2.19,14.55,1111122 
SCCF RECON,ioos:station:SCCF:53:1,2010-11-02T04:00:00Z,26.6493,-81.8810,2.24,14.73,1111122 
SCCF RECON,ioos:station:SCCF:53:1,2010-11-02T05:00:00Z,26.6493,-81.8810,2.27,15.02,1111122 
SCCF RECON,ioos:station:SCCF:53:1,2010-11-02T06:00:00Z,26.6493,-81.8810,2.26,15.17,1111122 
SCCF RECON,ioos:station:SCCF:53:1,2010-11-02T07:00:00Z,26.6493,-81.8810,2.2,14.72,1111122 
SCCF RECON,ioos:station:SCCF:53:1,2010-11-02T08:00:00Z,26.6493,-81.8810,2.14,14.32,1111122 
SCCF RECON,ioos:station:SCCF:53:1,2010-11-02T09:00:00Z,26.6493,-81.8810,2.093,14.55,1111122 
SCCF RECON,ioos:station:SCCF:53:1,2010-11-02T10:00:00Z,26.6493,-81.8810,2.04,14.63,1111122 
SCCF RECON,ioos:station:SCCF:53:1,2010-11-02T11:00:00Z,26.6493,-81.8810,2.0,14.23,1111122 
SCCF RECON,ioos:station:SCCF:53:1,2010-11-02T12:00:00Z,26.6493,-81.8810,1.98,14.37,1111122 
SCCF RECON,ioos:station:SCCF:53:1,2010-11-02T13:00:00Z,26.6493,-81.8810,1.99,13.6,1111122 
SCCF RECON,ioos:station:SCCF:53:1,2010-11-02T14:00:00Z,26.6493,-81.8810,2.041,13.93,1111122 
SCCF RECON,ioos:station:SCCF:53:1,2010-11-02T15:00:00Z,26.6493,-81.8810,2.08,13.4,1111122 
SCCF RECON,ioos:station:SCCF:53:1,2010-11-02T16:00:00Z,26.6493,-81.8810,2.121,13.66,1111122 
SCCF RECON,ioos:station:SCCF:53:1,2010-11-02T17:00:00Z,26.6493,-81.8810,2.16,13.32,1111122 
SCCF RECON,ioos:station:SCCF:53:1,2010-11-02T18:00:00Z,26.6493,-81.8810,2.176,13.14,1111122 
SCCF RECON,ioos:station:SCCF:53:1,2010-11-02T19:00:00Z,26.6493,-81.8810,2.13,13.66,1111122 
SCCF RECON,ioos:station:SCCF:53:1,2010-11-02T20:00:00Z,26.6493,-81.8810,2.079,13.63,1111122 
SCCF RECON,ioos:station:SCCF:53:1,2010-11-02T21:00:00Z,26.6493,-81.8810,2.03,13.51,1111122 
SCCF RECON,ioos:station:SCCF:53:1,2010-11-02T22:00:00Z,26.6493,-81.8810,1.981,13.48,1111122 
SCCF RECON,ioos:station:SCCF:53:1,2010-11-02T23:00:00Z,26.6493,-81.8810,1.95,13.64,1111122 
SCCF RECON,ioos:station:SCCF:53:1,2010-11-03T00:00:00Z,26.6493,-81.8810,1.94,13.98,1111122 
SCCF RECON,ioos:station:SCCF:53:1,2010-11-03T01:00:00Z,26.6493,-81.8810,2.0,13.89,1111122 
SCCF RECON,ioos:station:SCCF:53:1,2010-11-03T02:00:00Z,26.6493,-81.8810,2.06,13.4,1111122 
SCCF RECON,ioos:station:SCCF:53:1,2010-11-03T03:00:00Z,26.6493,-81.8810,2.11,13.6,1111122 
SCCF RECON,ioos:station:SCCF:53:1,2010-11-03T04:00:00Z,26.6493,-81.8810,2.18,13.82,1111122 
SCCF RECON,ioos:station:SCCF:53:1,2010-11-03T05:00:00Z,26.6493,-81.8810,2.23,13.8,1111122 
SCCF RECON,ioos:station:SCCF:53:1,2010-11-03T06:00:00Z,26.6493,-81.8810,2.25,14.02,1111122 
SCCF RECON,ioos:station:SCCF:53:1,2010-11-03T07:00:00Z,26.6493,-81.8810,2.22,14.55,1111122 
SCCF RECON,ioos:station:SCCF:53:1,2010-11-03T08:00:00Z,26.6493,-81.8810,2.151,13.59,1111122 
SCCF RECON,ioos:station:SCCF:53:1,2010-11-03T09:00:00Z,26.6493,-81.8810,2.1,12.95,1111122 
SCCF RECON,ioos:station:SCCF:53:1,2010-11-03T10:00:00Z,26.6493,-81.8810,2.04,12.95,1111122 
SCCF RECON,ioos:station:SCCF:53:1,2010-11-03T11:00:00Z,26.6493,-81.8810,1.99,12.83,1111122 
SCCF RECON,ioos:station:SCCF:53:1,2010-11-03T12:00:00Z,26.6493,-81.8810,1.94,13.61,1111122 
SCCF RECON,ioos:station:SCCF:53:1,2010-11-03T13:00:00Z,26.6493,-81.8810,1.927,13.2,1111122 
SCCF RECON,ioos:station:SCCF:53:1,2010-11-03T14:00:00Z,26.6493,-81.8810,1.974,13.45,1111122 
SCCF RECON,ioos:station:SCCF:53:1,2010-11-03T15:00:00Z,26.6493,-81.8810,2.02,13.59,1111122 
SCCF RECON,ioos:station:SCCF:53:1,2010-11-03T16:00:00Z,26.6493,-81.8810,2.06,13.69,1111122 
SCCF RECON,ioos:station:SCCF:53:1,2010-11-03T17:00:00Z,26.6493,-81.8810,2.109,13.84,1111122 
SCCF RECON,ioos:station:SCCF:53:1,2010-11-03T18:00:00Z,26.6493,-81.8810,2.159,13.89,1111122 
SCCF RECON,ioos:station:SCCF:53:1,2010-11-03T19:00:00Z,26.6493,-81.8810,2.181,13.94,1111122 
SCCF RECON,ioos:station:SCCF:53:1,2010-11-03T20:00:00Z,26.6493,-81.8810,2.179,14.0,1111122 
SCCF RECON,ioos:station:SCCF:53:1,2010-11-03T21:00:00Z,26.6493,-81.8810,2.154,14.03,1111122 
SCCF RECON,ioos:station:SCCF:53:1,2010-11-03T22:00:00Z,26.6493,-81.8810,2.115,13.52,1111122 
SCCF RECON,ioos:station:SCCF:53:1,2010-11-03T23:00:00Z,26.6493,-81.8810,2.06,12.72,1111122 
SCCF RECON,ioos:station:SCCF:53:1,2010-11-04T00:00:00Z,26.6493,-81.8810,2.03,12.31,1111122 
SCCF RECON,ioos:station:SCCF:53:1,2010-11-04T01:00:00Z,26.6493,-81.8810,2.05,13.56,1111122 
SCCF RECON,ioos:station:SCCF:53:1,2010-11-04T02:00:00Z,26.6493,-81.8810,2.11,13.95,1111122 
SCCF RECON,ioos:station:SCCF:53:1,2010-11-04T03:00:00Z,26.6493,-81.8810,2.168,13.84,1111122 
SCCF RECON,ioos:station:SCCF:53:1,2010-11-04T04:00:00Z,26.6493,-81.8810,2.22,14.04,1111122 
SCCF RECON,ioos:station:SCCF:53:1,2010-11-04T05:00:00Z,26.6493,-81.8810,2.28,14.13,1111122 
SCCF RECON,ioos:station:SCCF:53:1,2010-11-04T06:00:00Z,26.6493,-81.8810,2.32,14.27,1111122 
SCCF RECON,ioos:station:SCCF:53:1,2010-11-04T07:00:00Z,26.6493,-81.8810,2.33,14.18,1111122 
SCCF RECON,ioos:station:SCCF:53:1,2010-11-04T08:00:00Z,26.6493,-81.8810,2.294,14.11,1111122 
SCCF RECON,ioos:station:SCCF:53:1,2010-11-04T09:00:00Z,26.6493,-81.8810,2.243,13.93,1111122 
SCCF RECON,ioos:station:SCCF:53:1,2010-11-04T10:00:00Z,26.6493,-81.8810,2.18,13.49,1111122 
SCCF RECON,ioos:station:SCCF:53:1,2010-11-04T11:00:00Z,26.6493,-81.8810,2.12,13.0,1111122 
SCCF RECON,ioos:station:SCCF:53:1,2010-11-04T12:00:00Z,26.6493,-81.8810,2.06,12.78,1111122 
SCCF RECON,ioos:station:SCCF:53:1,2010-11-04T13:00:00Z,26.6493,-81.8810,2.009,12.54,1111122 
SCCF RECON,ioos:station:SCCF:53:1,2010-11-04T14:00:00Z,26.6493,-81.8810,2.009,12.99,1111122 
SCCF RECON,ioos:station:SCCF:53:1,2010-11-04T15:00:00Z,26.6493,-81.8810,2.064,13.34,1111122 
SCCF RECON,ioos:station:SCCF:53:1,2010-11-04T16:00:00Z,26.6493,-81.8810,2.12,13.21,1111122 
SCCF RECON,ioos:station:SCCF:53:1,2010-11-04T17:00:00Z,26.6493,-81.8810,2.18,13.45,1111122 
SCCF RECON,ioos:station:SCCF:53:1,2010-11-04T18:00:00Z,26.6493,-81.8810,2.249,13.43,1111122 
SCCF RECON,ioos:station:SCCF:53:1,2010-11-04T19:00:00Z,26.6493,-81.8810,2.319,13.31,1111122 
SCCF RECON,ioos:station:SCCF:53:1,2010-11-04T20:00:00Z,26.6493,-81.8810,2.337,13.48,1111122 
SCCF RECON,ioos:station:SCCF:53:1,2010-11-04T21:00:00Z,26.6493,-81.8810,2.33,13.44,1111122 
SCCF RECON,ioos:station:SCCF:53:1,2010-11-04T22:00:00Z,26.6493,-81.8810,2.29,12.61,1111122 
SCCF RECON,ioos:station:SCCF:53:1,2010-11-04T23:00:00Z,26.6493,-81.8810,2.238,12.53,1111122 
SCCF RECON,ioos:station:SCCF:53:1,2010-11-05T00:00:00Z,26.6493,-81.8810,2.2,12.19,1111122 
SCCF RECON,ioos:station:SCCF:53:1,2010-11-05T01:00:00Z,26.6493,-81.8810,2.19,12.03,1111122 
SCCF RECON,ioos:station:SCCF:53:1,2010-11-05T02:00:00Z,26.6493,-81.8810,2.243,12.36,1111122 
SCCF RECON,ioos:station:SCCF:53:1,2010-11-05T03:00:00Z,26.6493,-81.8810,2.31,12.77,1111122 
SCCF RECON,ioos:station:SCCF:53:1,2010-11-05T04:00:00Z,26.6493,-81.8810,2.37,12.87,1111122 
SCCF RECON,ioos:station:SCCF:53:1,2010-11-05T05:00:00Z,26.6493,-81.8810,2.44,13.09,1111122 
SCCF RECON,ioos:station:SCCF:53:1,2010-11-05T06:00:00Z,26.6493,-81.8810,2.498,12.87,1111122 
SCCF RECON,ioos:station:SCCF:53:1,2010-11-05T07:00:00Z,26.6493,-81.8810,2.506,13.11,1111122 
SCCF RECON,ioos:station:SCCF:53:1,2010-11-05T08:00:00Z,26.6493,-81.8810,2.46,12.98,1111122 
SCCF RECON,ioos:station:SCCF:53:1,2010-11-05T09:00:00Z,26.6493,-81.8810,2.405,12.41,1111122 
SCCF RECON,ioos:station:SCCF:53:1,2010-11-05T10:00:00Z,26.6493,-81.8810,2.34,11.94,1111122 
SCCF RECON,ioos:station:SCCF:53:1,2010-11-05T11:00:00Z,26.6493,-81.8810,2.27,11.76,1111122 
SCCF RECON,ioos:station:SCCF:53:1,2010-11-05T12:00:00Z,26.6493,-81.8810,2.22,11.58,1111122 
SCCF RECON,ioos:station:SCCF:53:1,2010-11-05T13:00:00Z,26.6493,-81.8810,2.16,11.38,1111122 
SCCF RECON,ioos:station:SCCF:53:1,2010-11-05T14:00:00Z,26.6493,-81.8810,2.104,11.05,1111122 
SCCF RECON,ioos:station:SCCF:53:1,2010-11-05T15:00:00Z,26.6493,-81.8810,2.053,10.64,1111122 
SCCF RECON,ioos:station:SCCF:53:1,2010-11-05T16:00:00Z,26.6493,-81.8810,2.007,10.39,1111122 
SCCF RECON,ioos:station:SCCF:53:1,2010-11-05T17:00:00Z,26.6493,-81.8810,1.971,10.23,1111122 
SCCF RECON,ioos:station:SCCF:53:1,2010-11-05T18:00:00Z,26.6493,-81.8810,1.973,10.31,1111122 
SCCF RECON,ioos:station:SCCF:53:1,2010-11-05T19:00:00Z,26.6493,-81.8810,2.002,10.61,1111122 
SCCF RECON,ioos:station:SCCF:53:1,2010-11-05T20:00:00Z,26.6493,-81.8810,2.008,10.83,1111122 
SCCF RECON,ioos:station:SCCF:53:1,2010-11-05T21:00:00Z,26.6493,-81.8810,1.987,10.8,1111122 
SCCF RECON,ioos:station:SCCF:53:1,2010-11-05T22:00:00Z,26.6493,-81.8810,1.959,10.3,1111122 
SCCF RECON,ioos:station:SCCF:53:1,2010-11-05T23:00:00Z,26.6493,-81.8810,1.93,9.94,1111122 
SCCF RECON,ioos:station:SCCF:53:1,2010-11-06T00:00:00Z,26.6493,-81.8810,1.903,9.74,1111122 
SCCF RECON,ioos:station:SCCF:53:1,2010-11-06T01:00:00Z,26.6493,-81.8810,1.883,9.35,1111122 
SCCF RECON,ioos:station:SCCF:53:1,2010-11-06T02:00:00Z,26.6493,-81.8810,1.89,9.29,1111122 
SCCF RECON,ioos:station:SCCF:53:1,2010-11-06T03:00:00Z,26.6493,-81.8810,1.96,9.93,1111122 
SCCF RECON,ioos:station:SCCF:53:1,2010-11-06T04:00:00Z,26.6493,-81.8810,2.019,10.05,1111122 
SCCF RECON,ioos:station:SCCF:53:1,2010-11-06T05:00:00Z,26.6493,-81.8810,2.076,10.56,1111122 
SCCF RECON,ioos:station:SCCF:53:1,2010-11-06T06:00:00Z,26.6493,-81.8810,2.147,11.17,1111122 
SCCF RECON,ioos:station:SCCF:53:1,2010-11-06T07:00:00Z,26.6493,-81.8810,2.19,11.4,1111122 
SCCF RECON,ioos:station:SCCF:53:1,2010-11-06T08:00:00Z,26.6493,-81.8810,2.19,11.33,1111122 
SCCF RECON,ioos:station:SCCF:53:1,2010-11-06T09:00:00Z,26.6493,-81.8810,2.14,10.98,1111122 
SCCF RECON,ioos:station:SCCF:53:1,2010-11-06T10:00:00Z,26.6493,-81.8810,2.097,9.88,1111122 
SCCF RECON,ioos:station:SCCF:53:1,2010-11-06T11:00:00Z,26.6493,-81.8810,2.05,9.48,1111122 
SCCF RECON,ioos:station:SCCF:53:1,2010-11-06T12:00:00Z,26.6493,-81.8810,2.01,9.06,1111122 
SCCF RECON,ioos:station:SCCF:53:1,2010-11-06T13:00:00Z,26.6493,-81.8810,1.97,8.77,1111122 
SCCF RECON,ioos:station:SCCF:53:1,2010-11-06T14:00:00Z,26.6493,-81.8810,1.929,8.52,1111122 
SCCF RECON,ioos:station:SCCF:53:1,2010-11-06T15:00:00Z,26.6493,-81.8810,1.878,8.3,1111122 
SCCF RECON,ioos:station:SCCF:53:1,2010-11-06T16:00:00Z,26.6493,-81.8810,1.833,7.87,1111122 
SCCF RECON,ioos:station:SCCF:53:1,2010-11-06T17:00:00Z,26.6493,-81.8810,1.813,7.89,1111122 
SCCF RECON,ioos:station:SCCF:53:1,2010-11-06T18:00:00Z,26.6493,-81.8810,1.816,8.03,1111122 
SCCF RECON,ioos:station:SCCF:53:1,2010-11-06T19:00:00Z,26.6493,-81.8810,1.859,8.43,1111122 
SCCF RECON,ioos:station:SCCF:53:1,2010-11-06T20:00:00Z,26.6493,-81.8810,1.896,8.8,1111122 
SCCF RECON,ioos:station:SCCF:53:1,2010-11-06T21:00:00Z,26.6493,-81.8810,1.92,9.2,1111122 
SCCF RECON,ioos:station:SCCF:53:1,2010-11-06T22:00:00Z,26.6493,-81.8810,1.93,9.15,1111122 
SCCF RECON,ioos:station:SCCF:53:1,2010-11-06T23:00:00Z,26.6493,-81.8810,1.92,9.08,1111122 
SCCF RECON,ioos:station:SCCF:53:1,2010-11-07T00:00:00Z,26.6493,-81.8810,1.9,8.94,1111122 
SCCF RECON,ioos:station:SCCF:53:1,2010-11-07T01:00:00Z,26.6493,-81.8810,1.88,8.33,1111122 
SCCF RECON,ioos:station:SCCF:53:1,2010-11-07T02:00:00Z,26.6493,-81.8810,1.88,8.43,1111122 
SCCF RECON,ioos:station:SCCF:53:1,2010-11-07T03:00:00Z,26.6493,-81.8810,1.91,8.67,1111122 
SCCF RECON,ioos:station:SCCF:53:1,2010-11-07T04:00:00Z,26.6493,-81.8810,1.96,9.15,1111122 
SCCF RECON,ioos:station:SCCF:53:1,2010-11-07T05:00:00Z,26.6493,-81.8810,2.01,9.86,1111122 
SCCF RECON,ioos:station:SCCF:53:1,2010-11-07T06:00:00Z,26.6493,-81.8810,2.06,10.35,1111122 
SCCF RECON,ioos:station:SCCF:53:1,2010-11-07T07:00:00Z,26.6493,-81.8810,2.11,10.72,1111122 
SCCF RECON,ioos:station:SCCF:53:1,2010-11-07T08:00:00Z,26.6493,-81.8810,2.126,10.9,1111122 
SCCF RECON,ioos:station:SCCF:53:1,2010-11-07T09:00:00Z,26.6493,-81.8810,2.09,10.36,1111122 
SCCF RECON,ioos:station:SCCF:53:1,2010-11-07T10:00:00Z,26.6493,-81.8810,2.04,9.74,1111122 
SCCF RECON,ioos:station:SCCF:53:1,2010-11-07T11:00:00Z,26.6493,-81.8810,2.006,8.94,1111122 
SCCF RECON,ioos:station:SCCF:53:1,2010-11-07T12:00:00Z,26.6493,-81.8810,1.962,8.64,1111122 
SCCF RECON,ioos:station:SCCF:53:1,2010-11-07T13:00:00Z,26.6493,-81.8810,1.911,8.39,1111122 
SCCF RECON,ioos:station:SCCF:53:1,2010-11-07T14:00:00Z,26.6493,-81.8810,1.87,7.86,1111122 
SCCF RECON,ioos:station:SCCF:53:1,2010-11-07T15:00:00Z,26.6493,-81.8810,1.829,7.45,1111122 
SCCF RECON,ioos:station:SCCF:53:1,2010-11-07T16:00:00Z,26.6493,-81.8810,1.78,7.16,1111122 
SCCF RECON,ioos:station:SCCF:53:1,2010-11-07T17:00:00Z,26.6493,-81.8810,1.741,7.1,1111122 
SCCF RECON,ioos:station:SCCF:53:1,2010-11-07T18:00:00Z,26.6493,-81.8810,1.741,7.13,1111122 
SCCF RECON,ioos:station:SCCF:53:1,2010-11-07T19:00:00Z,26.6493,-81.8810,1.782,7.44,1111122 
SCCF RECON,ioos:station:SCCF:53:1,2010-11-07T20:00:00Z,26.6493,-81.8810,1.81,7.84,1111122 
SCCF RECON,ioos:station:SCCF:53:1,2010-11-07T21:00:00Z,26.6493,-81.8810,1.846,8.43,1111122 
SCCF RECON,ioos:station:SCCF:53:1,2010-11-07T22:00:00Z,26.6493,-81.8810,1.882,9.01,1111122 
SCCF RECON,ioos:station:SCCF:53:1,2010-11-07T23:00:00Z,26.6493,-81.8810,1.901,9.38,1111122 
SCCF RECON,ioos:station:SCCF:53:1,2010-11-08T00:00:00Z,26.6493,-81.8810,1.93,9.65,1111122 
SCCF RECON,ioos:station:SCCF:53:1,2010-11-08T01:00:00Z,26.6493,-81.8810,1.94,9.59,1111122 
SCCF RECON,ioos:station:SCCF:53:1,2010-11-08T02:00:00Z,26.6493,-81.8810,1.93,9.32,1111122 
SCCF RECON,ioos:station:SCCF:53:1,2010-11-08T03:00:00Z,26.6493,-81.8810,1.922,8.51,1111122 
SCCF RECON,ioos:station:SCCF:53:1,2010-11-08T04:00:00Z,26.6493,-81.8810,1.93,8.95,1111122 
SCCF RECON,ioos:station:SCCF:53:1,2010-11-08T05:00:00Z,26.6493,-81.8810,1.973,9.86,1111122 
SCCF RECON,ioos:station:SCCF:53:1,2010-11-08T06:00:00Z,26.6493,-81.8810,2.013,10.32,1111122 
SCCF RECON,ioos:station:SCCF:53:1,2010-11-08T07:00:00Z,26.6493,-81.8810,2.061,10.48,1111122 
SCCF RECON,ioos:station:SCCF:53:1,2010-11-08T08:00:00Z,26.6493,-81.8810,2.1,10.66,1111122 
SCCF RECON,ioos:station:SCCF:53:1,2010-11-08T09:00:00Z,26.6493,-81.8810,2.09,10.79,1111122 
SCCF RECON,ioos:station:SCCF:53:1,2010-11-08T10:00:00Z,26.6493,-81.8810,2.05,10.51,1111122 
SCCF RECON,ioos:station:SCCF:53:1,2010-11-08T11:00:00Z,26.6493,-81.8810,2.001,9.54,1111122 
SCCF RECON,ioos:station:SCCF:53:1,2010-11-08T12:00:00Z,26.6493,-81.8810,1.96,8.8,1111122 
SCCF RECON,ioos:station:SCCF:53:1,2010-11-08T13:00:00Z,26.6493,-81.8810,1.91,7.95,1111122 
SCCF RECON,ioos:station:SCCF:53:1,2010-11-08T14:00:00Z,26.6493,-81.8810,1.869,7.75,1111122 
SCCF RECON,ioos:station:SCCF:53:1,2010-11-08T15:00:00Z,26.6493,-81.8810,1.822,7.46,1111122 
SCCF RECON,ioos:station:SCCF:53:1,2010-11-08T16:00:00Z,26.6493,-81.8810,1.78,7.3,1111122 
SCCF RECON,ioos:station:SCCF:53:1,2010-11-08T17:00:00Z,26.6493,-81.8810,1.732,7.32,1111122 
SCCF RECON,ioos:station:SCCF:53:1,2010-11-08T18:00:00Z,26.6493,-81.8810,1.73,7.52,1111122 
SCCF RECON,ioos:station:SCCF:53:1,2010-11-08T19:00:00Z,26.6493,-81.8810,1.77,8.09,1111122 
SCCF RECON,ioos:station:SCCF:53:1,2010-11-08T20:00:00Z,26.6493,-81.8810,1.81,8.67,1111122 
SCCF RECON,ioos:station:SCCF:53:1,2010-11-08T21:00:00Z,26.6493,-81.8810,1.853,9.41,1111122 
SCCF RECON,ioos:station:SCCF:53:1,2010-11-08T22:00:00Z,26.6493,-81.8810,1.912,9.47,1111122 
SCCF RECON,ioos:station:SCCF:53:1,2010-11-08T23:00:00Z,26.6493,-81.8810,1.96,9.77,1111122 
SCCF RECON,ioos:station:SCCF:53:1,2010-11-09T00:00:00Z,26.6493,-81.8810,1.99,10.07,1111122 
SCCF RECON,ioos:station:SCCF:53:1,2010-11-09T01:00:00Z,26.6493,-81.8810,2.018,10.46,1111122 
SCCF RECON,ioos:station:SCCF:53:1,2010-11-09T02:00:00Z,26.6493,-81.8810,2.03,10.5,1111122 
SCCF RECON,ioos:station:SCCF:53:1,2010-11-09T03:00:00Z,26.6493,-81.8810,2.04,10.59,1111122 
SCCF RECON,ioos:station:SCCF:53:1,2010-11-09T04:00:00Z,26.6493,-81.8810,2.07,10.78,1111122 
SCCF RECON,ioos:station:SCCF:53:1,2010-11-09T05:00:00Z,26.6493,-81.8810,2.12,11.21,1111122 
SCCF RECON,ioos:station:SCCF:53:1,2010-11-09T06:00:00Z,26.6493,-81.8810,2.17,11.34,1111122 
SCCF RECON,ioos:station:SCCF:53:1,2010-11-09T07:00:00Z,26.6493,-81.8810,2.23,11.53,1111122 
SCCF RECON,ioos:station:SCCF:53:1,2010-11-09T08:00:00Z,26.6493,-81.8810,2.29,11.78,1111122 
SCCF RECON,ioos:station:SCCF:53:1,2010-11-09T09:00:00Z,26.6493,-81.8810,2.33,11.99,1111122 
SCCF RECON,ioos:station:SCCF:53:1,2010-11-09T10:00:00Z,26.6493,-81.8810,2.33,12.02,1111122 
SCCF RECON,ioos:station:SCCF:53:1,2010-11-09T11:00:00Z,26.6493,-81.8810,2.271,11.92,1111122 
SCCF RECON,ioos:station:SCCF:53:1,2010-11-09T12:00:00Z,26.6493,-81.8810,2.22,11.45,1111122 
SCCF RECON,ioos:station:SCCF:53:1,2010-11-09T13:00:00Z,26.6493,-81.8810,2.17,11.84,1111122 
SCCF RECON,ioos:station:SCCF:53:1,2010-11-09T14:00:00Z,26.6493,-81.8810,2.114,12.03,1111122 
SCCF RECON,ioos:station:SCCF:53:1,2010-11-09T15:00:00Z,26.6493,-81.8810,2.06,12.26,1111122 
SCCF RECON,ioos:station:SCCF:53:1,2010-11-09T16:00:00Z,26.6493,-81.8810,2.001,12.14,1111122 
SCCF RECON,ioos:station:SCCF:53:1,2010-11-09T17:00:00Z,26.6493,-81.8810,1.942,12.13,1111122 
SCCF RECON,ioos:station:SCCF:53:1,2010-11-09T18:00:00Z,26.6493,-81.8810,1.9,12.24,1111122 
SCCF RECON,ioos:station:SCCF:53:1,2010-11-09T19:00:00Z,26.6493,-81.8810,1.901,12.25,1111122 
SCCF RECON,ioos:station:SCCF:53:1,2010-11-09T20:00:00Z,26.6493,-81.8810,1.94,11.48,1111122 
SCCF RECON,ioos:station:SCCF:53:1,2010-11-09T21:00:00Z,26.6493,-81.8810,1.982,11.21,1111122 
SCCF RECON,ioos:station:SCCF:53:1,2010-11-09T22:00:00Z,26.6493,-81.8810,2.027,11.99,1111122 
SCCF RECON,ioos:station:SCCF:53:1,2010-11-09T23:00:00Z,26.6493,-81.8810,2.063,12.63,1111122 
SCCF RECON,ioos:station:SCCF:53:1,2010-11-10T00:00:00Z,26.6493,-81.8810,2.088,12.73,1111122 
SCCF RECON,ioos:station:SCCF:53:1,2010-11-10T01:00:00Z,26.6493,-81.8810,2.09,13.45,1111122 
SCCF RECON,ioos:station:SCCF:53:1,2010-11-10T02:00:00Z,26.6493,-81.8810,2.09,12.3,1111122 
SCCF RECON,ioos:station:SCCF:53:1,2010-11-10T03:00:00Z,26.6493,-81.8810,2.07,12.18,1111122 
SCCF RECON,ioos:station:SCCF:53:1,2010-11-10T04:00:00Z,26.6493,-81.8810,2.06,12.18,1111122 
SCCF RECON,ioos:station:SCCF:53:1,2010-11-10T05:00:00Z,26.6493,-81.8810,2.09,12.72,1111122 
SCCF RECON,ioos:station:SCCF:53:1,2010-11-10T06:00:00Z,26.6493,-81.8810,2.14,12.97,1111122 
SCCF RECON,ioos:station:SCCF:53:1,2010-11-10T07:00:00Z,26.6493,-81.8810,2.19,13.71,1111122 
SCCF RECON,ioos:station:SCCF:53:1,2010-11-10T08:00:00Z,26.6493,-81.8810,2.25,13.88,1111122 
SCCF RECON,ioos:station:SCCF:53:1,2010-11-10T09:00:00Z,26.6493,-81.8810,2.3,14.3,1111122 
SCCF RECON,ioos:station:SCCF:53:1,2010-11-10T10:00:00Z,26.6493,-81.8810,2.34,14.46,1111122 
SCCF RECON,ioos:station:SCCF:53:1,2010-11-10T11:00:00Z,26.6493,-81.8810,2.331,14.75,1111122 
SCCF RECON,ioos:station:SCCF:53:1,2010-11-10T12:00:00Z,26.6493,-81.8810,2.286,14.35,1111122 
SCCF RECON,ioos:station:SCCF:53:1,2010-11-10T13:00:00Z,26.6493,-81.8810,2.24,14.24,1111122 
SCCF RECON,ioos:station:SCCF:53:1,2010-11-10T14:00:00Z,26.6493,-81.8810,2.18,14.32,1111122 
SCCF RECON,ioos:station:SCCF:53:1,2010-11-10T15:00:00Z,26.6493,-81.8810,2.122,14.71,1111122 
SCCF RECON,ioos:station:SCCF:53:1,2010-11-10T16:00:00Z,26.6493,-81.8810,2.068,14.84,1111122 
SCCF RECON,ioos:station:SCCF:53:1,2010-11-10T17:00:00Z,26.6493,-81.8810,2.01,14.88,1111122 
SCCF RECON,ioos:station:SCCF:53:1,2010-11-10T18:00:00Z,26.6493,-81.8810,1.96,14.8,1111122 
SCCF RECON,ioos:station:SCCF:53:1,2010-11-10T19:00:00Z,26.6493,-81.8810,1.95,14.74,1111122 
SCCF RECON,ioos:station:SCCF:53:1,2010-11-10T20:00:00Z,26.6493,-81.8810,1.99,14.02,1111122 
SCCF RECON,ioos:station:SCCF:53:1,2010-11-10T21:00:00Z,26.6493,-81.8810,2.04,14.18,1111122 
SCCF RECON,ioos:station:SCCF:53:1,2010-11-10T22:00:00Z,26.6493,-81.8810,2.09,14.63,1111122 
SCCF RECON,ioos:station:SCCF:53:1,2010-11-10T23:00:00Z,26.6493,-81.8810,2.14,14.66,1111122 
SCCF RECON,ioos:station:SCCF:53:1,2010-11-11T00:00:00Z,26.6493,-81.8810,2.18,14.73,1111122 
SCCF RECON,ioos:station:SCCF:53:1,2010-11-11T01:00:00Z,26.6493,-81.8810,2.2,14.93,1111122 
SCCF RECON,ioos:station:SCCF:53:1,2010-11-11T02:00:00Z,26.6493,-81.8810,2.2,15.22,1111122 
SCCF RECON,ioos:station:SCCF:53:1,2010-11-11T03:00:00Z,26.6493,-81.8810,2.19,14.84,1111122 
SCCF RECON,ioos:station:SCCF:53:1,2010-11-11T04:00:00Z,26.6493,-81.8810,2.16,14.85,1111122 
SCCF RECON,ioos:station:SCCF:53:1,2010-11-11T05:00:00Z,26.6493,-81.8810,2.147,15.1,1111122 
SCCF RECON,ioos:station:SCCF:53:1,2010-11-11T06:00:00Z,26.6493,-81.8810,2.16,15.54,1111122 
SCCF RECON,ioos:station:SCCF:53:1,2010-11-11T07:00:00Z,26.6493,-81.8810,2.2,15.62,1111122 
SCCF RECON,ioos:station:SCCF:53:1,2010-11-11T08:00:00Z,26.6493,-81.8810,2.256,15.83,1111122 
SCCF RECON,ioos:station:SCCF:53:1,2010-11-11T09:00:00Z,26.6493,-81.8810,2.3,15.78,1111122 
SCCF RECON,ioos:station:SCCF:53:1,2010-11-11T10:00:00Z,26.6493,-81.8810,2.34,16.58,1111122 
SCCF RECON,ioos:station:SCCF:53:1,2010-11-11T11:00:00Z,26.6493,-81.8810,2.36,17.07,1111122 
SCCF RECON,ioos:station:SCCF:53:1,2010-11-11T12:00:00Z,26.6493,-81.8810,2.33,16.19,1111122 
SCCF RECON,ioos:station:SCCF:53:1,2010-11-11T13:00:00Z,26.6493,-81.8810,2.28,16.51,1111122 
SCCF RECON,ioos:station:SCCF:53:1,2010-11-11T14:00:00Z,26.6493,-81.8810,2.23,15.95,1111122 
SCCF RECON,ioos:station:SCCF:53:1,2010-11-11T15:00:00Z,26.6493,-81.8810,2.177,16.33,1111122 
SCCF RECON,ioos:station:SCCF:53:1,2010-11-11T16:00:00Z,26.6493,-81.8810,2.12,16.53,1111122 
SCCF RECON,ioos:station:SCCF:53:1,2010-11-11T17:00:00Z,26.6493,-81.8810,2.06,16.47,1111122 
SCCF RECON,ioos:station:SCCF:53:1,2010-11-11T18:00:00Z,26.6493,-81.8810,2.008,16.55,1111122 